Hourly Data Report for September 10, 2017

All times are specified in Local Standard Time (LST). Add 1 hour to adjust for Daylight Saving Time where and when it is observed.

SAINT JOHN A
NEW BRUNSWICK

45°18'58.000" N
65°53'24.000" W
108.80 m
8104901
71609
YSJ

Download Data

Hourly Data (September 2017)
Hourly Data Report for September 10, 2017
Temp Definition
°C
Dew Point Temp Definition
°C
Rel Hum Definition
%
Wind Dir Definition
10's deg

Wind Spd Definition
km/h
Visibility Definition
km
Stn Press Definition
kPa
Hmdx Definition


Wind Chill Definition


Weather Definition


TIME
00:00 Legend Double Dagger 12.6 11.9 95 3 15 24.1 101.00     LegendNANA
01:00 Legend Double Dagger 12.5 11.8 95 1 14 24.1 101.00     LegendNANA
02:00 Legend Double Dagger 12.7 11.8 94 1 15 12.9 100.97     Mostly Cloudy
03:00 Legend Double Dagger 12.7 11.6 93 2 16 12.9 100.97     LegendNANA
04:00 Legend Double Dagger 12.3 11.2 93 1 17 12.9 100.99     LegendNANA
05:00 Legend Double Dagger 12.0 11.0 93 2 16 12.9 101.04     Mostly Cloudy
06:00 Legend Double Dagger 12.0 11.1 94 1 9 24.1 101.10     LegendNANA
07:00 Legend Double Dagger 12.0 10.8 92 36 18 24.1 101.12     LegendNANA
08:00 Legend Double Dagger 12.3 10.5 89 36 23 24.1 101.13     Mostly Cloudy
09:00 Legend Double Dagger 14.3 11.2 81 1 24 24.1 101.15     LegendNANA
10:00 Legend Double Dagger 16.6 10.4 66 2 23 24.1 101.16     LegendNANA
11:00 Legend Double Dagger 17.7 10.8 64 3 18 24.1 101.10     Mainly Clear
12:00 Legend Double Dagger 18.9 10.2 57 35 18 24.1 101.04     LegendNANA
13:00 Legend Double Dagger 18.3 11.0 62 3 15 24.1 100.97     LegendNANA
14:00 Legend Double Dagger 20.4 9.2 48 35 22 24.1 100.91     Mostly Cloudy
15:00 Legend Double Dagger 20.9 8.8 46 36 19 24.1 100.83     LegendNANA
16:00 Legend Double Dagger 18.6 8.7 52 34 20 24.1 100.81     LegendNANA
17:00 Legend Double Dagger 15.3 12.0 80 31 7 24.1 100.82     Rain Showers
18:00 Legend Double Dagger 15.3 12.4 83 32 9 24.1 100.82     LegendNANA
19:00 Legend Double Dagger 15.3 10.5 73 31 15 24.1 100.84     LegendNANA
20:00 Legend Double Dagger 14.6 10.3 75 32 16 24.1 100.88     Cloudy
21:00 Legend Double Dagger 13.8 10.2 79 33 16 24.1 100.88     LegendNANA
22:00 Legend Double Dagger 13.2 10.1 81 33 10 24.1 100.83     LegendNANA
23:00 Legend Double Dagger 13.0 9.4 79 34 9 24.1 100.82     Cloudy

Notes on Data Quality.

Legend

  • E = Estimated
  • M = Missing
  • NA = Not Available
  • ‡ = Partner data that is not subject to review by the National Climate Archives
Date modified: